Wind_Speed
8 8 8 8 8 8 8 7 7 7 8 8 8 7 7 7 7 7 8 10 11 11 12 12 12 12 12 12 11 11 11 10 10 10 10 10 10 10 10 10 11 11 11 11
9 9 9 9 8 9 9 8 9 9 10 10 9 9 8 8 8 8 9 10 10 11 12 12 13 13 13 13 12 12 12 11 11 12 12 11 11 11 11 11 12 12 13 13
11 11 11 10 10 10 10 10 10 10 10 11 10 9 9 9 9 9 9 9 10 12 13 13 13 13 13 13 13 13 13 12 12 12 12 13 13 12 12 13 13 14 15 15
14 13 13 11 11 11 11 10 11 10 10 10 10 10 10 11 11 11 11 10 11 12 13 14 14 14 14 14 13 14 14 14 13 13 14 14 15 15 15 15 15 16 16 16
16 16 14 13 13 13 12 12 12 11 11 11 11 12 12 12 12 12 12 12 12 13 13 14 14 14 14 14 14 14 15 15 15 15 15 15 16 16 17 17 17 17 18 18
18 18 16 14 14 15 15 14 12 11 11 11 12 13 13 13 13 13 13 13 13 13 13 14 14 14 15 15 15 16 16 17 17 17 17 17 18 18 18 19 19 20 20 20
19 19 17 16 16 15 15 13 12 12 12 12 12 13 14 14 14 14 14 14 14 14 14 14 15 15 16 16 17 17 18 18 18 18 19 19 19 20 20 20 21 21 22 22
20 20 18 17 17 17 15 15 14 14 13 13 13 14 15 15 16 16 16 15 15 15 15 15 15 16 16 17 18 18 19 19 19 20 20 21 21 21 22 23 23 23 24 24
22 20 19 18 18 18 17 17 16 15 15 15 16 16 16 16 16 17 17 17 17 16 16 16 16 17 17 18 19 20 21 21 21 22 22 23 23 24 24 25 25 25 26 27
23 22 22 21 21 20 19 18 17 17 17 17 17 17 17 17 18 18 19 19 19 18 19 19 19 20 20 20 21 22 22 23 24 24 25 25 26 27 27 28 28 29 29 30
25 24 24 24 23 22 21 20 20 20 20 20 20 20 20 19 19 20 20 20 20 20 20 21 21 21 21 22 23 23 24 25 25 26 27 28 28 29 30 31 32 32 33 34
27 26 26 26 25 25 24 24 23 22 22 22 22 22 22 21 21 21 22 22 23 23 23 23 23 23 24 24 25 25 26 27 28 28 29 30 31 32 33 34 35 36 37 37
28 27 28 27 27 27 26 25 25 25 25 25 24 24 23 23 24 24 24 24 24 25 25 25 25 25 26 27 27 28 28 29 30 31 31 32 33 34 35 36 37 38 39 41
29 29 28 28 28 27 27 27 27 26 26 27 26 26 26 26 26 25 26 26 26 26 26 27 27 28 28 28 29 30 31 31 32 33 34 35 35 36 37 38 39 40 42 43
29 29 28 28 28 28 28 28 27 27 27 28 28 28 28 27 27 28 28 28 28 28 28 29 29 30 30 31 32 32 33 34 35 35 36 37 38 39 39 40 42 43 43 44
30 30 29 28 28 29 29 29 29 29 29 29 29 29 29 29 29 30 30 30 30 30 31 31 32 32 33 33 34 35 36 36 37 38 39 40 40 41 43 43 44 45 46 46
31 31 30 30 30 30 30 30 30 30 30 30 30 30 30 31 31 31 31 32 32 32 33 34 34 35 36 36 37 37 38 39 40 40 41 42 43 44 45 46 47 47 48 49
32 32 32 32 32 31 31 31 31 31 31 31 31 31 32 32 32 32 33 34 35 35 35 36 37 38 38 39 39 40 40 41 42 43 44 45 45 46 47 48 48 49 49 49
33 33 33 34 33 33 32 32 31 31 32 32 32 32 33 33 34 35 35 36 36 37 37 38 39 39 40 41 42 43 43 44 44 45 46 46 47 47 48 48 49 49 50 50
34 34 34 34 34 34 34 34 34 33 33 34 34 35 35 35 36 37 37 38 38 39 39 40 40 41 42 43 44 44 45 45 46 47 47 47 48 48 49 49 49 50 51 52
35 35 35 35 35 35 35 35 35 35 35 35 36 36 37 37 37 38 39 39 40 41 41 42 42 43 44 44 45 46 46 47 47 47 48 48 49 49 49 50 51 52 52 53
34 34 35 35 35 35 35 36 36 36 36 37 37 37 38 38 38 39 40 41 41 42 43 43 44 44 45 46 46 47 47 48 48 49 49 50 50 51 52 52 52 53 54 55
35 35 36 36 36 36 36 36 37 37 37 37 38 39 39 39 40 40 41 42 43 43 44 44 45 45 46 46 47 47 48 48 49 50 50 51 52 52 52 53 54 54 54 55
36 36 36 36 36 36 36 36 37 37 37 38 38 38 39 39 40 41 42 42 43 44 44 45 45 45 46 47 48 48 49 50 51 51 51 51 51 52 53 54 54 55 55 56
36 36 36 36 36 36 36 36 36 36 37 37 37 38 39 39 40 41 41 42 42 43 44 45 46 46 47 48 48 49 50 51 51 51 51 52 52 53 54 54 55 55 55 56
35 35 36 36 36 36 36 36 36 36 37 37 38 39 39 40 41 41 42 43 43 44 45 46 46 47 48 49 49 50 50 51 52 52 52 53 54 54 55 55 55 55 55 55
35 35 36 36 37 37 37 37 37 37 38 39 39 40 40 41 41 42 43 43 44 45 46 47 47 48 49 49 50 50 51 51 52 52 52 53 53 53 54 54 54 54 53 53
Wind_Direction
223 221 215 215 217 225 234 243 248 247 252 253 253 257 255 253 250 246 243 239 236 239 245 248 249 248 245 247 249 249 251 254 257 262 265 266 267 266 264 264 267 273 279 284
224 223 224 222 227 230 237 245 251 253 257 259 255 253 254 252 249 246 248 245 243 245 246 248 250 249 248 249 248 249 252 255 258 263 266 266 265 263 264 266 271 276 280 283
229 231 235 234 239 242 247 251 256 258 258 260 257 255 254 252 249 249 253 252 251 249 247 247 249 250 250 248 248 249 253 257 261 264 267 267 266 265 267 269 273 276 279 281
236 237 240 241 241 244 247 254 258 258 258 259 260 260 257 255 255 257 259 260 257 253 251 249 250 251 251 251 251 252 254 259 263 265 268 269 267 267 270 273 274 276 278 279
240 241 242 242 244 246 250 256 260 261 262 260 258 258 259 259 257 258 259 258 257 256 253 252 252 252 252 254 256 256 257 260 262 266 268 268 269 269 271 273 276 278 280 280
242 244 244 243 245 248 251 255 262 265 266 262 259 258 258 258 257 256 258 258 258 257 256 254 253 253 253 255 258 259 260 262 264 266 268 269 270 271 272 274 276 279 279 280
244 246 246 245 246 250 254 261 263 265 266 264 261 260 259 258 258 258 259 260 259 259 259 257 256 256 256 258 260 262 263 264 266 267 268 270 271 272 274 276 277 278 279 281
245 247 249 249 251 254 258 260 263 264 264 263 262 261 261 261 261 261 259 258 259 260 259 259 258 258 259 260 261 263 265 266 267 268 268 270 272 273 275 276 277 278 279 281
248 250 250 250 254 256 258 260 262 264 264 264 263 263 262 263 263 262 261 260 259 260 262 262 264 264 263 263 264 265 266 267 268 268 270 272 274 275 276 277 278 279 280 281
250 251 252 253 255 256 257 258 261 263 264 266 265 265 265 265 264 263 262 261 262 262 264 265 267 267 267 266 266 266 267 269 270 271 272 274 276 277 278 278 279 280 280 281
252 254 255 257 258 259 259 259 260 263 265 266 265 266 267 267 265 263 263 263 264 265 266 267 267 267 268 268 268 268 269 271 272 273 274 275 277 278 279 279 280 281 281 282
251 254 256 257 258 259 259 259 260 263 265 265 265 265 266 266 265 264 264 265 266 267 268 269 270 270 269 269 270 271 272 272 274 275 276 277 278 279 280 280 281 282 282 283
251 252 254 255 256 258 260 260 260 261 263 264 264 264 266 266 265 265 266 266 267 268 269 270 270 271 271 272 273 274 275 276 276 276 278 279 280 280 281 281 282 283 283 284
250 252 253 255 256 258 260 261 262 262 262 263 264 264 265 265 264 265 266 266 267 268 269 270 271 272 273 274 276 276 277 278 278 279 279 280 281 282 282 282 282 283 284 285
248 250 252 253 255 257 259 262 263 263 263 264 264 265 265 264 264 265 266 266 267 268 270 272 273 274 275 276 277 278 278 279 279 280 281 281 282 282 283 284 284 285 285 286
248 250 252 255 257 258 260 261 263 263 263 264 264 265 265 265 265 265 266 267 267 269 270 272 273 274 275 277 278 279 280 280 281 282 282 282 283 283 284 284 284 285 285 285
250 251 254 256 257 259 260 261 261 262 264 264 265 265 265 266 266 265 266 267 268 269 271 272 274 275 277 278 279 281 281 282 283 283 283 283 284 284 284 285 285 285 286 286
252 252 254 256 258 259 261 262 261 262 264 265 266 266 267 267 267 267 267 269 270 271 272 273 275 276 278 279 280 281 281 282 283 284 284 284 285 285 285 285 285 286 286 287
252 254 255 256 257 259 261 262 263 264 265 265 266 267 267 268 268 269 270 272 273 273 275 276 276 277 278 279 280 281 282 283 283 284 285 285 286 286 286 286 286 287 287 287
253 255 257 257 258 260 261 263 264 265 265 266 266 267 268 269 270 271 272 273 275 275 275 277 278 278 278 279 281 282 283 284 285 285 286 286 287 287 287 287 287 288 288 288
253 256 257 259 259 261 262 263 265 266 266 267 268 268 269 271 271 272 273 274 275 276 276 277 278 279 280 281 282 283 284 284 285 286 286 287 287 288 288 288 289 289 288 289
254 257 259 260 261 262 263 265 266 267 268 268 269 270 271 271 272 273 274 275 275 277 277 278 279 280 280 282 283 284 285 285 286 286 287 287 288 288 289 289 290 290 290 290
256 258 260 261 262 263 264 265 267 268 268 269 270 271 272 273 273 274 275 276 277 277 279 280 280 281 281 282 283 284 285 286 287 287 287 287 288 289 289 290 291 291 291 291
258 260 261 262 263 264 264 265 266 267 268 270 271 272 273 273 274 276 277 278 278 278 279 280 281 281 282 283 284 285 286 287 287 288 288 288 288 289 290 291 292 293 292 292
258 259 260 261 261 262 263 264 266 267 269 270 271 272 274 275 276 276 277 278 280 280 281 281 282 283 284 284 285 286 287 287 288 288 289 289 289 290 291 292 292 292 293 293
257 258 259 260 261 263 264 265 266 268 269 271 272 274 275 276 277 278 279 280 281 282 283 284 284 285 285 286 286 286 287 287 288 289 289 289 290 291 292 292 293 293 293 293
258 259 260 260 261 263 264 265 267 268 270 272 273 275 276 277 278 280 281 282 283 284 285 285 285 286 286 287 287 288 288 288 288 289 290 291 292 292 293 293 294 294 294 294
Height
5843 5843 5844 5845 5846 5846 5847 5848 5849 5849 5849 5851 5851 5851 5851 5852 5853 5853 5854 5855 5855 5856 5857 5857 5857 5857 5858 5858 5859 5859 5859 5858 5858 5857 5857 5856 5856 5855 5855 5855 5855 5855 5855 5855
5841 5841 5842 5843 5843 5844 5845 5845 5846 5847 5847 5848 5848 5849 5849 5850 5850 5851 5851 5852 5853 5853 5853 5854 5854 5854 5855 5855 5856 5856 5856 5856 5855 5855 5854 5853 5853 5853 5853 5853 5853 5853 5853 5852
5839 5839 5840 5841 5842 5842 5842 5843 5844 5844 5846 5845 5846 5846 5847 5847 5848 5849 5849 5849 5849 5850 5850 5850 5851 5851 5851 5852 5852 5852 5853 5852 5852 5852 5851 5851 5851 5850 5850 5850 5850 5849 5849 5848
5835 5837 5838 5841 5839 5839 5840 5840 5841 5841 5842 5842 5843 5843 5844 5844 5845 5845 5846 5846 5846 5846 5846 5847 5847 5847 5848 5848 5848 5849 5849 5849 5849 5848 5848 5847 5847 5847 5846 5846 5845 5845 5844 5844
5831 5832 5834 5836 5836 5836 5837 5837 5837 5838 5839 5839 5839 5840 5840 5840 5841 5841 5842 5842 5842 5842 5843 5843 5843 5843 5844 5844 5844 5845 5845 5845 5845 5844 5844 5844 5843 5843 5842 5841 5841 5840 5839 5839
5827 5828 5830 5833 5832 5832 5834 5833 5835 5835 5835 5835 5835 5836 5837 5837 5837 5837 5838 5838 5838 5838 5838 5839 5839 5839 5840 5840 5840 5840 5840 5840 5840 5840 5840 5839 5839 5838 5837 5836 5836 5835 5834 5833
5822 5823 5825 5828 5828 5829 5830 5831 5831 5831 5831 5832 5832 5833 5833 5833 5833 5833 5834 5834 5834 5834 5834 5835 5835 5835 5835 5835 5836 5836 5835 5835 5835 5835 5834 5834 5834 5833 5832 5831 5830 5829 5828 5827
5817 5818 5823 5823 5823 5825 5826 5826 5826 5827 5827 5828 5828 5828 5828 5828 5829 5829 5829 5829 5830 5830 5830 5830 5830 5831 5831 5831 5831 5830 5830 5830 5829 5829 5829 5828 5828 5827 5826 5825 5824 5823 5821 5820
5813 5815 5816 5816 5818 5819 5820 5821 5821 5822 5822 5823 5823 5823 5823 5824 5824 5824 5824 5825 5825 5825 5825 5825 5825 5825 5825 5826 5825 5825 5824 5824 5824 5823 5822 5822 5821 5820 5819 5818 5817 5816 5814 5813
5806 5808 5809 5811 5812 5813 5814 5815 5816 5816 5817 5817 5818 5818 5818 5819 5819 5819 5819 5819 5819 5819 5820 5820 5819 5819 5819 5819 5819 5818 5818 5818 5817 5816 5816 5815 5814 5813 5812 5810 5809 5808 5806 5805
5800 5801 5803 5804 5805 5807 5808 5809 5810 5810 5811 5811 5812 5812 5812 5812 5813 5813 5813 5813 5813 5813 5813 5813 5813 5813 5813 5812 5812 5811 5811 5810 5810 5809 5808 5807 5806 5805 5803 5802 5800 5798 5797 5795
5793 5795 5796 5798 5799 5800 5801 5802 5803 5803 5804 5804 5805 5805 5806 5806 5806 5806 5807 5807 5806 5806 5807 5806 5806 5806 5806 5805 5805 5804 5803 5803 5802 5801 5800 5798 5797 5796 5794 5792 5790 5788 5786 5784
5786 5787 5789 5790 5791 5792 5793 5794 5795 5796 5797 5797 5798 5798 5799 5799 5799 5799 5800 5800 5799 5799 5799 5799 5799 5799 5798 5797 5797 5796 5795 5794 5793 5792 5790 5789 5787 5785 5784 5782 5779 5777 5775 5772
5778 5779 5781 5782 5783 5785 5785 5786 5787 5788 5789 5789 5790 5791 5791 5791 5792 5792 5792 5792 5792 5792 5792 5791 5791 5790 5790 5789 5788 5787 5786 5784 5783 5782 5780 5778 5776 5774 5772 5770 5768 5766 5763 5760
5769 5771 5772 5774 5775 5776 5777 5778 5779 5780 5781 5781 5782 5782 5783 5783 5784 5784 5784 5784 5784 5784 5783 5783 5782 5782 5780 5779 5778 5777 5776 5774 5772 5771 5769 5767 5765 5763 5760 5758 5755 5753 5750 5747
5761 5762 5764 5765 5767 5768 5769 5770 5771 5771 5772 5773 5773 5773 5774 5774 5775 5775 5775 5775 5775 5775 5774 5774 5773 5772 5770 5769 5768 5767 5765 5763 5761 5759 5757 5755 5753 5750 5747 5745 5742 5739 5736 5733
5752 5754 5755 5757 5758 5759 5760 5761 5762 5762 5763 5763 5764 5764 5765 5765 5765 5765 5765 5765 5765 5764 5764 5763 5762 5761 5759 5758 5757 5755 5753 5751 5749 5746 5744 5742 5739 5736 5733 5730 5727 5724 5721 5718
5743 5744 5746 5747 5748 5750 5750 5751 5752 5753 5754 5754 5754 5755 5755 5755 5755 5755 5755 5755 5755 5754 5753 5752 5751 5750 5748 5746 5744 5743 5741 5738 5736 5733 5731 5728 5725 5721 5718 5715 5711 5708 5705 5702
5732 5734 5736 5737 5739 5740 5741 5741 5742 5743 5744 5744 5744 5745 5745 5745 5745 5745 5744 5744 5743 5743 5742 5740 5739 5738 5736 5734 5731 5729 5727 5725 5722 5719 5716 5713 5710 5706 5703 5699 5696 5692 5689 5686
5722 5724 5725 5727 5728 5729 5730 5731 5732 5732 5733 5733 5734 5734 5734 5734 5734 5733 5733 5732 5731 5730 5729 5727 5726 5724 5722 5720 5718 5716 5713 5710 5708 5705 5701 5698 5694 5691 5687 5684 5680 5677 5673 5669
5712 5714 5715 5716 5717 5719 5719 5720 5721 5721 5722 5722 5722 5723 5723 5722 5722 5721 5721 5720 5719 5717 5716 5714 5713 5711 5709 5706 5704 5701 5699 5696 5693 5690 5686 5683 5679 5676 5672 5668 5664 5660 5656 5653
5702 5703 5704 5706 5707 5707 5708 5709 5709 5710 5710 5710 5711 5710 5710 5710 5710 5709 5708 5707 5706 5704 5702 5701 5699 5697 5694 5692 5690 5687 5684 5681 5678 5675 5671 5668 5664 5660 5656 5652 5648 5644 5640 5636
5691 5692 5694 5695 5696 5696 5697 5697 5698 5698 5698 5698 5698 5698 5698 5697 5697 5696 5695 5694 5692 5691 5689 5687 5685 5683 5680 5677 5675 5672 5669 5666 5662 5659 5655 5652 5648 5644 5640 5636 5632 5627 5623 5619
5680 5681 5682 5683 5684 5685 5685 5686 5686 5686 5686 5686 5686 5685 5685 5684 5684 5683 5681 5680 5678 5677 5675 5673 5670 5668 5665 5663 5660 5657 5654 5650 5647 5643 5639 5636 5632 5628 5624 5620 5615 5611 5606 5602
5668 5669 5670 5671 5672 5673 5674 5674 5674 5675 5674 5674 5674 5673 5672 5672 5671 5670 5668 5666 5664 5663 5661 5658 5656 5653 5651 5648 5645 5642 5638 5635 5631 5627 5623 5619 5615 5611 5607 5603 5598 5593 5589 5584
5656 5658 5659 5660 5661 5661 5662 5662 5663 5663 5663 5662 5662 5661 5660 5659 5658 5656 5655 5653 5651 5648 5646 5644 5641 5638 5635 5632 5629 5626 5623 5619 5615 5611 5607 5603 5599 5595 5590 5585 5581 5576 5571 5567
5645 5646 5647 5648 5649 5650 5650 5650 5651 5650 5650 5650 5649 5648 5647 5646 5644 5643 5641 5639 5636 5634 5632 5629 5626 5623 5620 5617 5613 5610 5606 5603 5599 5595 5591 5587 5583 5578 5573 5568 5563 5559 5554 5550